Weather History for Laramie, WY

Change the Weather History Date:

Tuesday, December 4, 2012

  Actual Average Record
Temperature  
Mean Temperature 33 °F 22 °F  
Max Temperature 48 °F 33 °F 56 °F (1965)
Min Temperature 17 °F 11 °F -26 °F (1992)
Degree Days  
Heating Degree Days 32 43  
Month to date heating degree days 109 170  
Since 1 July heating degree days 1976 2482  
Cooling Degree Days 0 0  
Month to date cooling degree days 0 0  
Year to date cooling degree days 211 67  
Moisture  
Dew Point 10 °F    
Average Humidity 38    
Maximum Humidity 56    
Minimum Humidity 19    
Precipitation  
Precipitation 0.00 in 0.01 in 0.32 in (1960)
Month to date precipitation 0.00 0.05  
Year to date precipitation 6.06 10.65  
Sea Level Pressure  
Sea Level Pressure 30.23 in    
Wind  
Wind Speed 15 mph (SW)    
Max Wind Speed 33 mph    
Max Gust Speed 38 mph    
Visibility 10 miles    
Events      
T = Trace of Precipitation, MM = Missing Value Source: NWS Daily Summary

Daily Weather History Graph

Daily Weather History Graph

Search for Another Location

Airport:

Trip Planner

Search our weather history database for the weather conditions in past years. The results will help you decide how hot, cold, wet, or windy it might be!

Date:

Astronomy

Dec. 04, 2012 Rise Set
Actual Time 7:12 AM MST 4:33 PM MST
Civil Twilight 6:41 AM MST 5:04 PM MST
Nautical Twilight 6:07 AM MST 5:38 PM MST
Astronomical Twilight 5:33 AM MST 6:12 PM MST
Moon 10:26 PM MST (12/4) 11:05 AM MST (12/4)
Length of Visible Light 10h 22m
Length of Day
9h 20m
Waning Gibbous, 69% of the Moon is Illuminated
Dec 4
Waning Gibbous
Dec 6
Last Quarter
Dec 13
New
Dec 19
First Quarter
Dec 28
Full

Hourly Weather History & Observations

Time (MST) Temp. Windchill Dew Point Humidity Pressure Visibility Wind Dir Wind Speed Gust Speed Precip Events Conditions
12:53 AM 26.1 °F 13.6 °F 1.9 °F 35% 30.21 in 10.0 mi SSW 16.1 mph - N/A   Clear
1:53 AM 23.0 °F 11.1 °F 1.9 °F 40% 30.23 in 10.0 mi South 12.7 mph - N/A   Clear
2:53 AM 21.0 °F 11.4 °F 3.9 °F 48% 30.27 in 10.0 mi SSE 8.1 mph - N/A   Clear
3:53 AM 23.0 °F 14.7 °F 6.1 °F 48% 30.27 in 10.0 mi West 6.9 mph - N/A   Clear
4:53 AM 25.0 °F - 5.0 °F 43% 30.29 in 10.0 mi Calm Calm - N/A   Clear
5:53 AM 19.9 °F 9.3 °F 6.1 °F 55% 30.35 in 10.0 mi South 9.2 mph - N/A   Clear
6:53 AM 23.0 °F 11.1 °F 6.1 °F 48% 30.35 in 10.0 mi South 12.7 mph - N/A   Clear
7:53 AM 27.0 °F - 6.1 °F 41% 30.37 in 10.0 mi Calm Calm - N/A   Clear
8:53 AM 35.1 °F 27.4 °F 3.0 °F 26% 30.33 in 10.0 mi SSW 10.4 mph 18.4 mph N/A   Clear
9:53 AM 37.9 °F 27.1 °F 3.0 °F 23% 30.30 in 10.0 mi WSW 23.0 mph 33.4 mph N/A   Clear
10:53 AM 39.9 °F 35.1 °F 3.9 °F 22% 30.26 in 10.0 mi SW 6.9 mph - N/A   Mostly Cloudy
11:53 AM 44.1 °F 34.8 °F 5.0 °F 20% 30.20 in 10.0 mi WSW 25.3 mph 29.9 mph N/A   Scattered Clouds
12:53 PM 46.9 °F - 6.1 °F 19% 30.17 in 10.0 mi SW 24.2 mph 29.9 mph N/A   Mostly Cloudy
1:53 PM 45.0 °F 36.2 °F 8.1 °F 22% 30.18 in 10.0 mi WSW 24.2 mph 31.1 mph N/A   Scattered Clouds
2:53 PM 44.1 °F 34.8 °F 10.9 °F 26% 30.17 in 10.0 mi WSW 25.3 mph 35.7 mph N/A   Clear
3:53 PM 44.1 °F 37.4 °F 16.0 °F 32% 30.21 in 10.0 mi SW 13.8 mph 23.0 mph N/A   Clear
4:53 PM 42.1 °F 36.6 °F 19.0 °F 40% 30.20 in 10.0 mi SSW 9.2 mph 20.7 mph N/A   Scattered Clouds
5:53 PM 39.9 °F 31.1 °F 15.1 °F 36% 30.25 in 10.0 mi West 17.3 mph 28.8 mph N/A   Clear
6:53 PM 39.0 °F 36.8 °F 16.0 °F 39% 30.24 in 10.0 mi Variable 3.5 mph - N/A   Clear
7:53 PM 39.0 °F 32.3 °F 18.0 °F 43% 30.22 in 10.0 mi WSW 10.4 mph - N/A   Clear
8:53 PM 39.9 °F 29.7 °F 19.0 °F 43% 30.14 in 10.0 mi SW 23.0 mph 32.2 mph N/A   Clear
9:53 PM 39.9 °F 30.0 °F 19.0 °F 43% 30.14 in 10.0 mi WSW 21.9 mph - N/A   Clear
10:53 PM 39.0 °F 29.6 °F 19.0 °F 45% 30.11 in 10.0 mi WSW 18.4 mph - N/A   Clear
11:53 PM 39.0 °F 28.0 °F 19.0 °F 45% 30.04 in 10.0 mi WSW 25.3 mph 33.4 mph N/A   Clear